Terug naar catalogus

ICEYE-X54

ActiefWetenschapSSO
NORAD 64570·PAYLOAD·🇫🇮 Finland

Gelanceerd Jun 23, 2025 vanaf Vandenberg Space Force Base

Loading…

Volgende Passages (komende 24 uur)

TLE

VersSource: Space-Track

Epoch: Sep 14, 2026, 14:14 UTC

1 64570U 25135AU  26257.59310238  .00002392  00000-0  22451-3 0  9994
2 64570  97.7794  11.2016 0003024  47.5470 312.6006 14.94910536 67254

Volg ICEYE-X54 in realtime met AllMySat

Download on the App Store